Time,TemperatureF,DewpointF,PressureIn,WindDirection,WindDirectionDegrees,WindSpeedMPH,WindSpeedGustMPH,Humidity,HourlyPrecipIn,Conditions,Clouds,dailyrainin,SoftwareType,DateUTC
2013-01-04 00:00:00,59.6,58.5,30.17,NE,56,4.0,6.0,96,0.00,,,0.02,Wunderground v.1.13,2013-01-04 05:00:00,
2013-01-04 00:06:00,59.6,58.5,30.17,NE,55,5.0,6.0,96,0.00,,,0.00,Wunderground v.1.13,2013-01-04 05:06:00,
2013-01-04 00:08:00,59.6,58.5,30.17,NE,56,5.0,6.0,96,0.00,,,0.00,Wunderground v.1.13,2013-01-04 05:08:00,
2013-01-04 00:10:00,59.6,58.7,30.17,NE,53,4.0,6.0,97,0.00,,,0.00,Wunderground v.1.13,2013-01-04 05:10:00,
2013-01-04 00:16:00,59.7,58.8,30.17,ENE,60,4.0,5.0,97,0.00,,,0.00,Wunderground v.1.13,2013-01-04 05:16:00,
2013-01-04 00:20:00,59.8,58.9,30.16,NE,41,4.0,6.0,97,0.00,,,0.00,Wunderground v.1.13,2013-01-04 05:20:00,
2013-01-04 00:26:00,59.8,58.9,30.16,NE,42,4.0,5.0,97,0.00,,,0.00,Wunderground v.1.13,2013-01-04 05:26:00,
2013-01-04 00:32:00,59.8,58.9,30.16,NNE,29,4.0,5.0,97,0.00,,,0.00,Wunderground v.1.13,2013-01-04 05:32:00,
2013-01-04 00:38:00,59.8,58.9,30.16,ENE,60,4.0,4.0,97,0.00,,,0.00,Wunderground v.1.13,2013-01-04 05:38:00,
2013-01-04 00:44:00,59.7,58.8,30.16,North,11,3.0,5.0,97,0.00,,,0.00,Wunderground v.1.13,2013-01-04 05:44:00,
2013-01-04 00:50:00,59.6,58.7,30.17,North,360,3.0,4.0,97,0.00,,,0.00,Wunderground v.1.13,2013-01-04 05:50:00,
2013-01-04 00:56:00,59.5,58.6,30.17,North,355,4.0,5.0,97,0.00,,,0.00,Wunderground v.1.13,2013-01-04 05:56:00,
2013-01-04 01:02:00,59.4,58.5,30.17,NNE,32,4.0,10.0,97,0.00,,,0.00,Wunderground v.1.13,2013-01-04 06:02:00,
2013-01-04 01:08:00,59.4,58.5,30.17,North,355,4.0,4.0,97,0.00,,,0.00,Wunderground v.1.13,2013-01-04 06:08:00,
2013-01-04 01:14:00,59.3,58.4,30.16,NNE,15,3.0,3.0,97,0.00,,,0.00,Wunderground v.1.13,2013-01-04 06:14:00,
2013-01-04 01:20:00,59.1,58.2,30.16,NNE,24,3.0,6.0,97,0.00,,,0.00,Wunderground v.1.13,2013-01-04 06:20:00,
2013-01-04 01:26:00,59.0,58.2,30.16,NNE,28,4.0,5.0,97,0.00,,,0.00,Wunderground v.1.13,2013-01-04 06:26:00,
2013-01-04 01:32:00,59.0,58.2,30.17,NNE,24,3.0,5.0,97,0.00,,,0.00,Wunderground v.1.13,2013-01-04 06:32:00,
2013-01-04 01:38:00,58.9,58.1,30.17,North,355,3.0,4.0,97,0.00,,,0.00,Wunderground v.1.13,2013-01-04 06:38:00,
2013-01-04 01:44:00,58.8,58.0,30.17,NNE,30,3.0,4.0,97,0.00,,,0.00,Wunderground v.1.13,2013-01-04 06:44:00,
2013-01-04 01:50:00,58.8,58.0,30.17,NNE,30,2.0,2.0,97,0.00,,,0.00,Wunderground v.1.13,2013-01-04 06:50:00,
2013-01-04 01:56:00,58.7,57.9,30.17,NNE,17,0.0,1.0,97,0.00,,,0.00,Wunderground v.1.13,2013-01-04 06:56:00,
2013-01-04 02:02:00,58.6,57.8,30.17,NNE,14,0.0,11.0,97,0.00,,,0.00,Wunderground v.1.13,2013-01-04 07:02:00,
2013-01-04 02:08:00,58.5,57.7,30.17,NE,44,0.0,0.0,97,0.00,,,0.00,Wunderground v.1.13,2013-01-04 07:08:00,
2013-01-04 02:14:00,58.4,57.6,30.17,NE,40,0.0,0.0,97,0.00,,,0.00,Wunderground v.1.13,2013-01-04 07:14:00,
2013-01-04 02:20:00,58.2,57.4,30.17,NE,34,0.0,0.0,97,0.00,,,0.00,Wunderground v.1.13,2013-01-04 07:20:00,
2013-01-04 02:26:00,58.0,57.2,30.17,NNE,22,0.0,1.0,97,0.00,,,0.00,Wunderground v.1.13,2013-01-04 07:26:00,
2013-01-04 02:32:00,57.7,56.9,30.17,NNE,30,0.0,1.0,97,0.00,,,0.00,Wunderground v.1.13,2013-01-04 07:32:00,
2013-01-04 02:38:00,57.6,56.8,30.17,ENE,60,1.0,1.0,97,0.00,,,0.00,Wunderground v.1.13,2013-01-04 07:38:00,
2013-01-04 02:44:00,57.5,56.7,30.16,NNE,32,1.0,1.0,97,0.00,,,0.00,Wunderground v.1.13,2013-01-04 07:44:00,
2013-01-04 02:50:00,57.4,56.6,30.17,NE,38,1.0,1.0,97,0.00,,,0.00,Wunderground v.1.13,2013-01-04 07:50:00,
2013-01-04 02:56:00,57.3,56.5,30.16,NE,36,1.0,5.0,97,0.00,,,0.00,Wunderground v.1.13,2013-01-04 07:56:00,
2013-01-04 03:02:00,57.3,56.5,30.17,NE,43,1.0,1.0,97,0.00,,,0.00,Wunderground v.1.13,2013-01-04 08:02:00,
2013-01-04 03:08:00,57.4,56.6,30.17,NNE,32,1.0,1.0,97,0.00,,,0.00,Wunderground v.1.13,2013-01-04 08:08:00,
2013-01-04 03:14:00,57.5,56.7,30.17,ENE,57,1.0,2.0,97,0.00,,,0.01,Wunderground v.1.13,2013-01-04 08:14:00,
2013-01-04 03:20:00,57.5,56.7,30.17,NNE,29,2.0,5.0,97,0.00,,,0.01,Wunderground v.1.13,2013-01-04 08:20:00,
2013-01-04 03:26:00,57.4,56.6,30.17,NE,45,2.0,4.0,97,0.00,,,0.01,Wunderground v.1.13,2013-01-04 08:26:00,
2013-01-04 03:32:00,57.5,56.7,30.17,NE,49,3.0,4.0,97,0.00,,,0.01,Wunderground v.1.13,2013-01-04 08:32:00,
2013-01-04 03:38:00,57.5,56.7,30.17,ENE,59,3.0,3.0,97,0.00,,,0.01,Wunderground v.1.13,2013-01-04 08:38:00,
2013-01-04 03:44:00,57.5,56.7,30.17,NE,51,3.0,4.0,97,0.00,,,0.01,Wunderground v.1.13,2013-01-04 08:44:00,
2013-01-04 03:50:00,57.5,56.7,30.17,NE,43,2.0,5.0,97,0.00,,,0.01,Wunderground v.1.13,2013-01-04 08:50:00,
2013-01-04 03:56:00,57.6,56.8,30.18,NE,44,2.0,3.0,97,0.00,,,0.01,Wunderground v.1.13,2013-01-04 08:56:00,
2013-01-04 04:02:00,57.6,56.5,30.17,NE,49,1.0,6.0,96,0.00,,,0.01,Wunderground v.1.13,2013-01-04 09:02:00,
2013-01-04 04:08:00,57.7,56.9,30.17,NE,48,1.0,1.0,97,0.00,,,0.01,Wunderground v.1.13,2013-01-04 09:08:00,
2013-01-04 04:14:00,57.6,56.5,30.17,NNE,26,1.0,1.0,96,0.00,,,0.01,Wunderground v.1.13,2013-01-04 09:14:00,
2013-01-04 04:20:00,57.5,56.4,30.18,North,11,1.0,1.0,96,0.00,,,0.01,Wunderground v.1.13,2013-01-04 09:20:00,
2013-01-04 04:26:00,57.5,56.4,30.18,NNE,16,1.0,1.0,96,0.00,,,0.01,Wunderground v.1.13,2013-01-04 09:26:00,
2013-01-04 04:32:00,57.3,56.2,30.18,NE,40,2.0,2.0,96,0.00,,,0.01,Wunderground v.1.13,2013-01-04 09:32:00,
2013-01-04 04:38:00,57.1,56.0,30.18,NE,48,4.0,7.0,96,0.00,,,0.01,Wunderground v.1.13,2013-01-04 09:38:00,
2013-01-04 04:44:00,57.0,55.9,30.18,NE,38,4.0,5.0,96,0.00,,,0.01,Wunderground v.1.13,2013-01-04 09:44:00,
2013-01-04 04:50:00,56.9,55.8,30.18,NE,39,3.0,3.0,96,0.00,,,0.01,Wunderground v.1.13,2013-01-04 09:50:00,
2013-01-04 04:56:00,56.5,55.4,30.18,NE,45,3.0,6.0,96,0.00,,,0.01,Wunderground v.1.13,2013-01-04 09:56:00,
2013-01-04 05:02:00,56.2,55.1,30.18,NNE,32,3.0,5.0,96,0.00,,,0.01,Wunderground v.1.13,2013-01-04 10:02:00,
2013-01-04 05:08:00,56.1,55.0,30.18,NE,40,3.0,3.0,96,0.00,,,0.01,Wunderground v.1.13,2013-01-04 10:08:00,
2013-01-04 05:14:00,56.1,55.0,30.18,NNE,32,4.0,7.0,96,0.00,,,0.01,Wunderground v.1.13,2013-01-04 10:14:00,
2013-01-04 05:20:00,56.1,55.0,30.18,NE,52,4.0,4.0,96,0.00,,,0.01,Wunderground v.1.13,2013-01-04 10:20:00,
2013-01-04 05:26:00,56.2,55.4,30.18,NE,53,3.0,5.0,97,0.00,,,0.01,Wunderground v.1.13,2013-01-04 10:26:00,
2013-01-04 05:32:00,56.1,55.0,30.19,ENE,57,3.0,4.0,96,0.00,,,0.01,Wunderground v.1.13,2013-01-04 10:32:00,
2013-01-04 05:38:00,56.0,54.9,30.19,NE,40,4.0,5.0,96,0.00,,,0.01,Wunderground v.1.13,2013-01-04 10:38:00,
2013-01-04 05:44:00,56.0,54.9,30.19,NE,53,5.0,8.0,96,0.00,,,0.01,Wunderground v.1.13,2013-01-04 10:44:00,
2013-01-04 05:50:00,56.0,54.9,30.19,NNE,24,5.0,7.0,96,0.00,,,0.01,Wunderground v.1.13,2013-01-04 10:50:00,
2013-01-04 05:56:00,55.9,54.8,30.19,ENE,57,4.0,9.0,96,0.00,,,0.01,Wunderground v.1.13,2013-01-04 10:56:00,
2013-01-04 06:02:00,56.0,54.9,30.20,NE,49,4.0,9.0,96,0.00,,,0.01,Wunderground v.1.13,2013-01-04 11:02:00,
2013-01-04 06:08:00,56.0,54.9,30.20,NE,34,3.0,3.0,96,0.00,,,0.01,Wunderground v.1.13,2013-01-04 11:08:00,
2013-01-04 06:14:00,56.0,54.9,30.20,NNE,28,2.0,2.0,96,0.00,,,0.01,Wunderground v.1.13,2013-01-04 11:14:00,
2013-01-04 06:20:00,55.9,54.8,30.20,NE,37,1.0,1.0,96,0.00,,,0.01,Wunderground v.1.13,2013-01-04 11:20:00,
2013-01-04 06:26:00,55.8,54.7,30.20,NE,39,2.0,6.0,96,0.00,,,0.01,Wunderground v.1.13,2013-01-04 11:26:00,
2013-01-04 06:32:00,55.8,54.7,30.20,NNE,33,4.0,6.0,96,0.00,,,0.01,Wunderground v.1.13,2013-01-04 11:32:00,
2013-01-04 06:38:00,55.7,54.6,30.20,NNE,28,4.0,4.0,96,0.00,,,0.01,Wunderground v.1.13,2013-01-04 11:38:00,
2013-01-04 06:44:00,55.8,54.7,30.20,North,360,4.0,4.0,96,0.00,,,0.01,Wunderground v.1.13,2013-01-04 11:44:00,
2013-01-04 06:50:00,55.7,54.6,30.20,NE,48,5.0,5.0,96,0.00,,,0.01,Wunderground v.1.13,2013-01-04 11:50:00,
2013-01-04 06:56:00,55.8,55.0,30.21,NE,36,3.0,5.0,97,0.00,,,0.01,Wunderground v.1.13,2013-01-04 11:56:00,
2013-01-04 07:02:00,55.8,54.7,30.21,NE,34,3.0,10.0,96,0.00,,,0.01,Wunderground v.1.13,2013-01-04 12:02:00,
2013-01-04 07:08:00,55.8,54.7,30.21,ENE,59,4.0,6.0,96,0.00,,,0.01,Wunderground v.1.13,2013-01-04 12:08:00,
2013-01-04 07:14:00,55.9,54.8,30.21,NE,42,2.0,3.0,96,0.00,,,0.01,Wunderground v.1.13,2013-01-04 12:14:00,
2013-01-04 07:20:00,55.9,54.8,30.21,NNE,13,2.0,6.0,96,0.00,,,0.01,Wunderground v.1.13,2013-01-04 12:20:00,
2013-01-04 07:26:00,55.8,54.7,30.22,NE,37,3.0,5.0,96,0.00,,,0.01,Wunderground v.1.13,2013-01-04 12:26:00,
2013-01-04 07:32:00,55.7,54.6,30.22,NNE,27,2.0,2.0,96,0.00,,,0.01,Wunderground v.1.13,2013-01-04 12:32:00,
2013-01-04 07:38:00,55.5,54.4,30.22,NNE,32,2.0,3.0,96,0.00,,,0.01,Wunderground v.1.13,2013-01-04 12:38:00,
2013-01-04 07:44:00,55.3,54.2,30.23,NNE,26,3.0,5.0,96,0.00,,,0.01,Wunderground v.1.13,2013-01-04 12:44:00,
2013-01-04 07:50:00,55.4,54.3,30.23,NE,40,3.0,4.0,96,0.00,,,0.01,Wunderground v.1.13,2013-01-04 12:50:00,
2013-01-04 07:56:00,55.5,54.4,30.23,NE,48,3.0,6.0,96,0.00,,,0.01,Wunderground v.1.13,2013-01-04 12:56:00,
2013-01-04 08:02:00,55.5,54.4,30.23,NE,42,4.0,6.0,96,0.00,,,0.01,Wunderground v.1.13,2013-01-04 13:02:00,
2013-01-04 08:08:00,55.6,54.5,30.23,NE,42,4.0,5.0,96,0.00,,,0.01,Wunderground v.1.13,2013-01-04 13:08:00,
2013-01-04 08:14:00,55.7,54.6,30.23,NE,38,4.0,4.0,96,0.00,,,0.01,Wunderground v.1.13,2013-01-04 13:14:00,
2013-01-04 08:20:00,55.5,54.4,30.23,ENE,63,4.0,6.0,96,0.00,,,0.01,Wunderground v.1.13,2013-01-04 13:20:00,
2013-01-04 08:26:00,55.5,54.4,30.24,NE,36,5.0,5.0,96,0.00,,,0.01,Wunderground v.1.13,2013-01-04 13:26:00,
2013-01-04 08:32:00,55.5,54.4,30.24,NE,37,4.0,4.0,96,0.00,,,0.01,Wunderground v.1.13,2013-01-04 13:32:00,
2013-01-04 08:38:00,55.6,54.5,30.24,NE,44,3.0,3.0,96,0.00,,,0.01,Wunderground v.1.13,2013-01-04 13:38:00,
2013-01-04 08:44:00,55.7,54.6,30.25,NE,44,2.0,3.0,96,0.00,,,0.01,Wunderground v.1.13,2013-01-04 13:44:00,
2013-01-04 08:50:00,55.8,55.0,30.25,NE,38,2.0,3.0,97,0.00,,,0.01,Wunderground v.1.13,2013-01-04 13:50:00,
2013-01-04 08:56:00,55.8,54.7,30.25,NE,41,2.0,3.0,96,0.00,,,0.01,Wunderground v.1.13,2013-01-04 13:56:00,
2013-01-04 09:02:00,55.8,54.7,30.25,ENE,60,3.0,10.0,96,0.00,,,0.01,Wunderground v.1.13,2013-01-04 14:02:00,
2013-01-04 09:08:00,56.0,55.2,30.25,NNE,30,3.0,4.0,97,0.00,,,0.01,Wunderground v.1.13,2013-01-04 14:08:00,
2013-01-04 09:14:00,56.0,54.9,30.26,NE,51,3.0,8.0,96,0.00,,,0.01,Wunderground v.1.13,2013-01-04 14:14:00,
2013-01-04 09:20:00,55.9,54.8,30.26,NE,40,4.0,6.0,96,0.00,,,0.01,Wunderground v.1.13,2013-01-04 14:20:00,
2013-01-04 09:26:00,55.9,54.8,30.27,NNE,14,4.0,4.0,96,0.00,,,0.01,Wunderground v.1.13,2013-01-04 14:26:00,
2013-01-04 09:32:00,55.9,54.8,30.27,NE,48,5.0,5.0,96,0.00,,,0.01,Wunderground v.1.13,2013-01-04 14:32:00,
2013-01-04 09:38:00,55.9,54.8,30.26,NE,48,4.0,4.0,96,0.00,,,0.01,Wunderground v.1.13,2013-01-04 14:38:00,
2013-01-04 09:44:00,56.0,54.9,30.26,NE,55,4.0,6.0,96,0.00,,,0.01,Wunderground v.1.13,2013-01-04 14:44:00,
2013-01-04 10:56:00,57.1,56.0,30.26,ENE,58,3.0,3.0,96,0.00,,,0.01,Wunderground v.1.13,2013-01-04 15:56:00,
2013-01-04 11:02:00,57.2,56.1,30.26,NE,53,3.0,5.0,96,0.00,,,0.01,Wunderground v.1.13,2013-01-04 16:02:00,
2013-01-04 11:08:00,57.3,56.2,30.26,NE,51,3.0,3.0,96,0.00,,,0.01,Wunderground v.1.13,2013-01-04 16:08:00,
2013-01-04 11:14:00,57.3,56.2,30.26,NE,53,3.0,4.0,96,0.00,,,0.01,Wunderground v.1.13,2013-01-04 16:14:00,
2013-01-04 11:20:00,57.4,56.3,30.26,NE,54,3.0,3.0,96,0.00,,,0.01,Wunderground v.1.13,2013-01-04 16:20:00,
2013-01-04 11:26:00,57.5,56.4,30.26,NE,51,2.0,2.0,96,0.00,,,0.01,Wunderground v.1.13,2013-01-04 16:26:00,
2013-01-04 11:32:00,57.5,56.4,30.26,ENE,57,2.0,5.0,96,0.00,,,0.01,Wunderground v.1.13,2013-01-04 16:32:00,
2013-01-04 11:38:00,57.7,56.6,30.25,NE,55,2.0,2.0,96,0.00,,,0.01,Wunderground v.1.13,2013-01-04 16:38:00,
2013-01-04 11:44:00,57.8,56.7,30.25,ENE,64,1.0,2.0,96,0.00,,,0.01,Wunderground v.1.13,2013-01-04 16:44:00,
2013-01-04 11:50:00,57.7,56.6,30.25,ENE,59,2.0,2.0,96,0.00,,,0.01,Wunderground v.1.13,2013-01-04 16:50:00,
2013-01-04 11:56:00,57.8,56.7,30.25,NE,54,1.0,2.0,96,0.00,,,0.01,Wunderground v.1.13,2013-01-04 16:56:00,
2013-01-04 12:02:00,58.0,56.9,30.25,NE,55,0.0,2.0,96,0.00,,,0.01,Wunderground v.1.13,2013-01-04 17:02:00,
2013-01-04 12:08:00,58.1,57.3,30.25,NE,55,1.0,3.0,97,0.00,,,0.01,Wunderground v.1.13,2013-01-04 17:08:00,
2013-01-04 12:14:00,58.0,57.2,30.24,NE,55,2.0,2.0,97,0.00,,,0.01,Wunderground v.1.13,2013-01-04 17:14:00,
2013-01-04 12:20:00,58.5,57.7,30.23,NE,56,1.0,2.0,97,0.00,,,0.01,Wunderground v.1.13,2013-01-04 17:20:00,
2013-01-04 12:26:00,58.6,57.8,30.23,ENE,61,2.0,3.0,97,0.00,,,0.01,Wunderground v.1.13,2013-01-04 17:26:00,
2013-01-04 12:32:00,58.5,57.4,30.22,NE,55,2.0,3.0,96,0.00,,,0.01,Wunderground v.1.13,2013-01-04 17:32:00,
2013-01-04 12:38:00,58.8,58.0,30.22,ENE,67,1.0,1.0,97,0.00,,,0.01,Wunderground v.1.13,2013-01-04 17:38:00,
2013-01-04 12:44:00,58.9,58.1,30.22,ENE,63,0.0,0.0,97,0.00,,,0.01,Wunderground v.1.13,2013-01-04 17:44:00,
2013-01-04 12:50:00,58.9,58.1,30.22,ENE,60,0.0,2.0,97,0.00,,,0.01,Wunderground v.1.13,2013-01-04 17:50:00,
2013-01-04 12:56:00,58.9,57.8,30.21,ENE,57,1.0,1.0,96,0.00,,,0.01,Wunderground v.1.13,2013-01-04 17:56:00,
2013-01-04 13:02:00,59.0,58.2,30.21,ENE,57,0.0,6.0,97,0.00,,,0.01,Wunderground v.1.13,2013-01-04 18:02:00,
2013-01-04 13:08:00,59.2,58.1,30.21,NE,56,0.0,0.0,96,0.00,,,0.01,Wunderground v.1.13,2013-01-04 18:08:00,
2013-01-04 13:14:00,59.1,58.0,30.21,NE,53,0.0,1.0,96,0.00,,,0.01,Wunderground v.1.13,2013-01-04 18:14:00,
2013-01-04 13:20:00,59.1,58.0,30.21,NE,53,0.0,0.0,96,0.00,,,0.01,Wunderground v.1.13,2013-01-04 18:20:00,
2013-01-04 13:26:00,59.3,58.4,30.21,NE,53,0.0,0.0,97,0.00,,,0.01,Wunderground v.1.13,2013-01-04 18:26:00,
2013-01-04 13:32:00,59.5,58.6,30.21,NE,53,0.0,0.0,97,0.00,,,0.01,Wunderground v.1.13,2013-01-04 18:32:00,
2013-01-04 13:38:00,59.7,58.8,30.21,NE,53,0.0,0.0,97,0.00,,,0.01,Wunderground v.1.13,2013-01-04 18:38:00,
2013-01-04 13:44:00,59.7,58.6,30.20,NE,53,0.0,0.0,96,0.00,,,0.01,Wunderground v.1.13,2013-01-04 18:44:00,
2013-01-04 13:50:00,59.7,58.6,30.20,NE,52,0.0,0.0,96,0.00,,,0.01,Wunderground v.1.13,2013-01-04 18:50:00,
2013-01-04 13:56:00,59.9,58.8,30.20,NE,55,0.0,0.0,96,0.00,,,0.01,Wunderground v.1.13,2013-01-04 18:56:00,
2013-01-04 14:02:00,59.8,58.7,30.20,NE,40,1.0,4.0,96,0.00,,,0.01,Wunderground v.1.13,2013-01-04 19:02:00,
2013-01-04 14:08:00,59.7,58.6,30.20,NE,41,2.0,2.0,96,0.00,,,0.01,Wunderground v.1.13,2013-01-04 19:08:00,
2013-01-04 14:14:00,59.8,58.7,30.20,NE,41,2.0,2.0,96,0.00,,,0.01,Wunderground v.1.13,2013-01-04 19:14:00,
2013-01-04 14:20:00,59.8,58.7,30.20,NE,37,2.0,3.0,96,0.00,,,0.01,Wunderground v.1.13,2013-01-04 19:20:00,
2013-01-04 14:26:00,59.9,58.8,30.20,NE,40,1.0,2.0,96,0.00,,,0.01,Wunderground v.1.13,2013-01-04 19:26:00,
2013-01-04 14:32:00,59.7,58.6,30.20,North,5,2.0,3.0,96,0.00,,,0.01,Wunderground v.1.13,2013-01-04 19:32:00,
2013-01-04 14:38:00,59.8,58.9,30.19,NE,36,2.0,2.0,97,0.00,,,0.01,Wunderground v.1.13,2013-01-04 19:38:00,
2013-01-04 14:44:00,59.8,58.9,30.19,NE,49,1.0,1.0,97,0.00,,,0.01,Wunderground v.1.13,2013-01-04 19:44:00,
2013-01-04 14:50:00,59.8,58.9,30.20,NE,52,1.0,1.0,97,0.00,,,0.01,Wunderground v.1.13,2013-01-04 19:50:00,
2013-01-04 14:56:00,59.7,58.8,30.20,NE,45,2.0,3.0,97,0.00,,,0.01,Wunderground v.1.13,2013-01-04 19:56:00,
2013-01-04 15:02:00,59.8,58.9,30.19,NE,45,2.0,5.0,97,0.00,,,0.01,Wunderground v.1.13,2013-01-04 20:02:00,
2013-01-04 15:08:00,59.8,58.9,30.20,NNE,26,1.0,3.0,97,0.00,,,0.01,Wunderground v.1.13,2013-01-04 20:08:00,
2013-01-04 15:14:00,59.8,58.9,30.20,NE,37,1.0,3.0,97,0.00,,,0.01,Wunderground v.1.13,2013-01-04 20:14:00,
2013-01-04 15:20:00,59.8,58.9,30.20,NE,53,1.0,4.0,97,0.00,,,0.01,Wunderground v.1.13,2013-01-04 20:20:00,
2013-01-04 15:26:00,59.8,58.9,30.20,NE,52,1.0,1.0,97,0.00,,,0.01,Wunderground v.1.13,2013-01-04 20:26:00,
2013-01-04 15:32:00,59.8,58.9,30.20,NNE,15,1.0,3.0,97,0.00,,,0.01,Wunderground v.1.13,2013-01-04 20:32:00,
2013-01-04 15:38:00,59.8,58.9,30.21,NNE,18,1.0,1.0,97,0.00,,,0.01,Wunderground v.1.13,2013-01-04 20:38:00,
2013-01-04 15:44:00,59.8,58.9,30.21,North,5,0.0,2.0,97,0.00,,,0.01,Wunderground v.1.13,2013-01-04 20:44:00,
2013-01-04 15:50:00,59.7,58.8,30.21,North,11,0.0,0.0,97,0.00,,,0.01,Wunderground v.1.13,2013-01-04 20:50:00,
2013-01-04 15:56:00,59.7,58.8,30.22,North,10,0.0,2.0,97,0.00,,,0.01,Wunderground v.1.13,2013-01-04 20:56:00,
2013-01-04 16:02:00,59.7,58.8,30.22,NNE,21,1.0,5.0,97,0.00,,,0.01,Wunderground v.1.13,2013-01-04 21:02:00,
2013-01-04 16:08:00,59.7,58.8,30.22,NNE,20,0.0,0.0,97,0.00,,,0.01,Wunderground v.1.13,2013-01-04 21:08:00,
2013-01-04 16:14:00,59.7,58.8,30.22,North,10,1.0,1.0,97,0.00,,,0.01,Wunderground v.1.13,2013-01-04 21:14:00,
2013-01-04 16:20:00,59.6,58.7,30.22,NNE,18,1.0,4.0,97,0.00,,,0.01,Wunderground v.1.13,2013-01-04 21:20:00,
2013-01-04 16:26:00,59.5,58.6,30.22,NNE,13,1.0,4.0,97,0.00,,,0.01,Wunderground v.1.13,2013-01-04 21:26:00,
2013-01-04 16:32:00,59.5,58.6,30.23,NNE,19,1.0,1.0,97,0.00,,,0.01,Wunderground v.1.13,2013-01-04 21:32:00,
2013-01-04 16:38:00,59.5,58.6,30.23,NNE,33,1.0,1.0,97,0.00,,,0.01,Wunderground v.1.13,2013-01-04 21:38:00,
2013-01-04 16:44:00,59.5,58.6,30.23,NNE,26,1.0,3.0,97,0.00,,,0.02,Wunderground v.1.13,2013-01-04 21:44:00,
2013-01-04 16:50:00,59.5,58.6,30.23,NNE,27,1.0,3.0,97,0.00,,,0.02,Wunderground v.1.13,2013-01-04 21:50:00,
2013-01-04 16:56:00,59.5,58.6,30.23,NNE,27,1.0,1.0,97,0.00,,,0.02,Wunderground v.1.13,2013-01-04 21:56:00,
2013-01-04 17:02:00,59.4,58.5,30.23,NE,34,1.0,4.0,97,0.00,,,0.02,Wunderground v.1.13,2013-01-04 22:02:00,
2013-01-04 17:08:00,59.4,58.5,30.23,NE,34,1.0,1.0,97,0.00,,,0.02,Wunderground v.1.13,2013-01-04 22:08:00,
2013-01-04 17:14:00,59.4,58.5,30.23,NE,37,2.0,3.0,97,0.00,,,0.02,Wunderground v.1.13,2013-01-04 22:14:00,
2013-01-04 17:20:00,59.3,58.4,30.23,NNE,24,2.0,3.0,97,0.00,,,0.02,Wunderground v.1.13,2013-01-04 22:20:00,
2013-01-04 17:26:00,59.3,58.4,30.23,NNE,30,1.0,5.0,97,0.00,,,0.02,Wunderground v.1.13,2013-01-04 22:26:00,
2013-01-04 17:32:00,59.3,58.4,30.23,NE,35,1.0,4.0,97,0.00,,,0.02,Wunderground v.1.13,2013-01-04 22:32:00,
2013-01-04 17:38:00,59.3,58.4,30.23,NE,36,1.0,3.0,97,0.00,,,0.02,Wunderground v.1.13,2013-01-04 22:38:00,
2013-01-04 17:44:00,59.4,58.5,30.23,NE,40,1.0,1.0,97,0.00,,,0.02,Wunderground v.1.13,2013-01-04 22:44:00,
2013-01-04 17:50:00,59.3,58.4,30.23,NE,46,1.0,6.0,97,0.00,,,0.02,Wunderground v.1.13,2013-01-04 22:50:00,
2013-01-04 17:56:00,59.2,58.3,30.23,NNE,13,2.0,2.0,97,0.00,,,0.02,Wunderground v.1.13,2013-01-04 22:56:00,
2013-01-04 18:02:00,59.1,58.2,30.24,NNE,21,2.0,7.0,97,0.00,,,0.02,Wunderground v.1.13,2013-01-04 23:02:00,
2013-01-04 18:08:00,59.0,58.2,30.24,NNE,16,1.0,1.0,97,0.00,,,0.02,Wunderground v.1.13,2013-01-04 23:08:00,
2013-01-04 18:14:00,59.1,58.2,30.24,NNW,346,1.0,3.0,97,0.00,,,0.02,Wunderground v.1.13,2013-01-04 23:14:00,
2013-01-04 18:20:00,58.8,58.0,30.25,NE,47,2.0,6.0,97,0.00,,,0.02,Wunderground v.1.13,2013-01-04 23:20:00,
2013-01-04 18:26:00,58.6,57.8,30.25,NE,52,4.0,8.0,97,0.00,,,0.02,Wunderground v.1.13,2013-01-04 23:26:00,
2013-01-04 18:32:00,58.7,57.9,30.25,NNE,18,4.0,5.0,97,0.00,,,0.02,Wunderground v.1.13,2013-01-04 23:32:00,
2013-01-04 18:38:00,58.7,57.9,30.26,NE,42,3.0,3.0,97,0.00,,,0.02,Wunderground v.1.13,2013-01-04 23:38:00,
2013-01-04 18:44:00,58.7,57.9,30.26,NE,36,2.0,2.0,97,0.00,,,0.02,Wunderground v.1.13,2013-01-04 23:44:00,
2013-01-04 18:50:00,58.6,57.5,30.26,ENE,61,3.0,5.0,96,0.00,,,0.02,Wunderground v.1.13,2013-01-04 23:50:00,
2013-01-04 18:56:00,58.6,57.5,30.25,NE,40,4.0,7.0,96,0.00,,,0.02,Wunderground v.1.13,2013-01-04 23:56:00,
2013-01-04 19:02:00,58.6,57.5,30.25,NE,49,4.0,6.0,96,0.00,,,0.02,Wunderground v.1.13,2013-01-05 00:02:00,
2013-01-04 19:08:00,58.7,57.9,30.25,ENE,57,4.0,4.0,97,0.00,,,0.02,Wunderground v.1.13,2013-01-05 00:08:00,
2013-01-04 19:14:00,58.7,57.6,30.25,NE,56,4.0,4.0,96,0.00,,,0.02,Wunderground v.1.13,2013-01-05 00:14:00,
2013-01-04 19:20:00,58.7,57.6,30.25,ENE,57,3.0,5.0,96,0.00,,,0.02,Wunderground v.1.13,2013-01-05 00:20:00,
2013-01-04 19:26:00,58.6,57.5,30.25,NE,49,4.0,5.0,96,0.00,,,0.02,Wunderground v.1.13,2013-01-05 00:26:00,
2013-01-04 19:32:00,58.6,57.5,30.26,NE,47,3.0,5.0,96,0.00,,,0.02,Wunderground v.1.13,2013-01-05 00:32:00,
2013-01-04 19:38:00,58.7,57.6,30.26,NE,55,3.0,4.0,96,0.00,,,0.02,Wunderground v.1.13,2013-01-05 00:38:00,
2013-01-04 19:44:00,58.8,57.7,30.26,NE,34,3.0,6.0,96,0.00,,,0.02,Wunderground v.1.13,2013-01-05 00:44:00,
2013-01-04 19:50:00,58.8,57.7,30.27,NE,36,2.0,2.0,96,0.00,,,0.02,Wunderground v.1.13,2013-01-05 00:50:00,
2013-01-04 19:56:00,58.9,57.8,30.28,NE,36,1.0,2.0,96,0.00,,,0.02,Wunderground v.1.13,2013-01-05 00:56:00,
2013-01-04 20:02:00,59.0,57.6,30.27,NE,39,1.0,6.0,95,0.00,,,0.02,Wunderground v.1.13,2013-01-05 01:02:00,
2013-01-04 20:08:00,58.9,57.5,30.27,NE,52,2.0,3.0,95,0.00,,,0.02,Wunderground v.1.13,2013-01-05 01:08:00,
2013-01-04 20:14:00,58.9,57.5,30.27,NE,49,1.0,2.0,95,0.00,,,0.02,Wunderground v.1.13,2013-01-05 01:14:00,
2013-01-04 20:20:00,58.9,57.5,30.27,NE,46,1.0,1.0,95,0.00,,,0.02,Wunderground v.1.13,2013-01-05 01:20:00,
2013-01-04 20:26:00,58.9,57.5,30.28,NE,46,0.0,1.0,95,0.00,,,0.02,Wunderground v.1.13,2013-01-05 01:26:00,
2013-01-04 20:32:00,58.9,57.5,30.28,NE,46,0.0,0.0,95,0.00,,,0.02,Wunderground v.1.13,2013-01-05 01:32:00,
2013-01-04 20:38:00,58.9,57.5,30.28,NE,47,1.0,1.0,95,0.00,,,0.02,Wunderground v.1.13,2013-01-05 01:38:00,
2013-01-04 20:44:00,58.7,57.3,30.28,NE,40,3.0,5.0,95,0.00,,,0.02,Wunderground v.1.13,2013-01-05 01:44:00,
2013-01-04 20:50:00,58.7,57.3,30.28,NE,42,3.0,4.0,95,0.00,,,0.02,Wunderground v.1.13,2013-01-05 01:50:00,
2013-01-04 20:56:00,58.7,57.3,30.28,NE,49,3.0,4.0,95,0.00,,,0.02,Wunderground v.1.13,2013-01-05 01:56:00,
2013-01-04 21:02:00,58.8,57.4,30.28,NE,37,3.0,6.0,95,0.00,,,0.02,Wunderground v.1.13,2013-01-05 02:02:00,
2013-01-04 21:08:00,58.8,57.4,30.28,NE,56,3.0,3.0,95,0.00,,,0.02,Wunderground v.1.13,2013-01-05 02:08:00,
2013-01-04 21:14:00,58.9,57.2,30.28,NE,52,1.0,2.0,94,0.00,,,0.02,Wunderground v.1.13,2013-01-05 02:14:00,
2013-01-04 21:20:00,58.9,57.2,30.28,ENE,60,1.0,5.0,94,0.00,,,0.02,Wunderground v.1.13,2013-01-05 02:20:00,
2013-01-04 21:26:00,58.9,57.2,30.28,NE,40,4.0,5.0,94,0.00,,,0.02,Wunderground v.1.13,2013-01-05 02:26:00,
2013-01-04 21:32:00,59.0,57.0,30.28,ENE,68,4.0,7.0,93,0.00,,,0.02,Wunderground v.1.13,2013-01-05 02:32:00,
2013-01-04 21:38:00,59.1,57.1,30.28,ENE,64,3.0,3.0,93,0.00,,,0.02,Wunderground v.1.13,2013-01-05 02:38:00,
2013-01-04 21:44:00,59.1,57.1,30.28,ENE,71,2.0,3.0,93,0.00,,,0.02,Wunderground v.1.13,2013-01-05 02:44:00,
2013-01-04 21:50:00,59.1,57.1,30.28,ENE,71,2.0,5.0,93,0.00,,,0.02,Wunderground v.1.13,2013-01-05 02:50:00,
2013-01-04 21:56:00,59.2,57.2,30.28,ENE,71,2.0,2.0,93,0.00,,,0.02,Wunderground v.1.13,2013-01-05 02:56:00,
2013-01-04 22:02:00,59.1,56.8,30.27,ENE,69,0.0,6.0,92,0.00,,,0.02,Wunderground v.1.13,2013-01-05 03:02:00,
2013-01-04 22:08:00,59.2,56.9,30.27,ENE,64,0.0,0.0,92,0.00,,,0.02,Wunderground v.1.13,2013-01-05 03:08:00,
2013-01-04 22:14:00,59.2,56.9,30.27,ENE,61,0.0,0.0,92,0.00,,,0.02,Wunderground v.1.13,2013-01-05 03:14:00,
2013-01-04 22:20:00,59.2,56.6,30.27,NE,47,2.0,4.0,91,0.00,,,0.02,Wunderground v.1.13,2013-01-05 03:20:00,
2013-01-04 22:26:00,59.1,56.5,30.27,NE,55,4.0,4.0,91,0.00,,,0.02,Wunderground v.1.13,2013-01-05 03:26:00,
2013-01-04 22:32:00,59.2,56.6,30.28,ENE,61,2.0,3.0,91,0.00,,,0.02,Wunderground v.1.13,2013-01-05 03:32:00,
2013-01-04 22:38:00,59.2,56.6,30.28,ENE,57,2.0,5.0,91,0.00,,,0.02,Wunderground v.1.13,2013-01-05 03:38:00,
2013-01-04 22:44:00,59.3,56.4,30.27,ENE,58,3.0,4.0,90,0.00,,,0.02,Wunderground v.1.13,2013-01-05 03:44:00,
2013-01-04 22:50:00,59.3,56.4,30.28,ENE,59,2.0,2.0,90,0.00,,,0.02,Wunderground v.1.13,2013-01-05 03:50:00,
2013-01-04 22:56:00,59.3,56.4,30.28,ENE,59,1.0,1.0,90,0.00,,,0.02,Wunderground v.1.13,2013-01-05 03:56:00,
2013-01-04 23:02:00,59.4,56.5,30.28,ENE,59,0.0,6.0,90,0.00,,,0.02,Wunderground v.1.13,2013-01-05 04:02:00,
2013-01-04 23:08:00,59.4,56.5,30.28,ENE,57,0.0,0.0,90,0.00,,,0.02,Wunderground v.1.13,2013-01-05 04:08:00,
2013-01-04 23:14:00,59.5,56.3,30.28,ENE,58,1.0,2.0,89,0.00,,,0.02,Wunderground v.1.13,2013-01-05 04:14:00,
2013-01-04 23:20:00,59.4,56.2,30.27,NE,55,3.0,3.0,89,0.00,,,0.02,Wunderground v.1.13,2013-01-05 04:20:00,
2013-01-04 23:26:00,59.5,56.3,30.27,NE,55,3.0,3.0,89,0.00,,,0.02,Wunderground v.1.13,2013-01-05 04:26:00,
2013-01-04 23:32:00,59.5,56.3,30.27,NE,55,2.0,2.0,89,0.00,,,0.02,Wunderground v.1.13,2013-01-05 04:32:00,
2013-01-04 23:38:00,59.5,56.3,30.27,NE,45,1.0,3.0,89,0.00,,,0.02,Wunderground v.1.13,2013-01-05 04:38:00,
2013-01-04 23:44:00,59.4,56.2,30.27,ENE,69,2.0,5.0,89,0.00,,,0.02,Wunderground v.1.13,2013-01-05 04:44:00,
2013-01-04 23:50:00,59.3,56.1,30.27,ENE,63,3.0,5.0,89,0.00,,,0.02,Wunderground v.1.13,2013-01-05 04:50:00,
2013-01-04 23:56:00,59.2,56.0,30.27,ENE,61,3.0,3.0,89,0.00,,,0.02,Wunderground v.1.13,2013-01-05 04:56:00,